#timestamp,LO_Frequency,Hit 
1501336815.0,286046995.7,P
1501336815.9,286046995.7,P
1501336835.8,286046997.8,P
1501336855.6,286046995.5,P
1501336875.4,286046998.9,P
1501336895.3,286046998.8,N
1501336915.1,286047001.1,N
1501336935.9,286046998.1,N
1501336955.7,286046998.3,N
1501336975.5,286046998.5,N
1501336995.4,286047002.0,N
1501337015.2,286047003.6,N
1501337035.0,286047005.3,N
1501337036.0,286047005.3,N
1501337055.8,286047005.4,N
1501337075.6,286047005.5,N
1501337095.5,286047003.0,N
1501337115.3,286047005.2,N
1501337135.1,286047003.1,N
1501337155.9,286047001.8,N
1501337175.7,286047001.4,N
1501337195.6,286047001.3,N
1501337215.4,286047003.8,N
1501337235.2,286047003.8,N
1501337255.1,286047004.1,N
1501337256.0,286047004.1,N
1501337275.8,286047002.1,N
1501337295.6,286047002.3,N
1501337315.5,286047002.8,N
1501337335.3,286047002.6,N
1501337355.2,286047001.3,N
1501337375.9,286047003.3,N
1501337395.7,286047004.2,N
1501337415.6,286047001.6,N
1501337435.4,286047004.2,N
1501337455.2,286047004.0,N
1501337475.1,286047002.2,N
1501337476.0,286047002.2,N
1501337495.8,286047000.0,N
1501337515.7,286047001.2,N
1501337535.5,286047000.2,N
1501337555.3,286047000.3,N
1501337575.2,286046999.9,N
1501337595.0,286047001.1,N
1501337595.9,286047001.1,N
1501337615.7,286047002.5,N
1501337635.6,286047001.3,N
1501337655.4,286047004.4,P
1501337675.3,286047001.0,N
1501337695.1,286047000.2,N
1501337715.8,286047000.1,N
1501337735.7,286047002.4,N
1501337755.5,286047000.8,N
1501337775.4,286046998.7,N
1501337795.2,286046999.5,N
1501337815.0,286046998.4,N
1501337815.9,286046998.4,N
1501337835.8,286047000.5,N
1501337855.6,286047000.9,N
1501337875.4,286046999.7,N
1501337895.3,286047001.9,N
1501337915.1,286047005.9,P
1501337935.9,286047003.5,N
1501337955.7,286047003.7,N
1501337975.5,286047004.6,N
1501337995.4,286047005.4,P
1501338015.2,286046998.5,N
1501338035.1,286046998.8,N
1501338036.0,286046998.8,N
1501338055.8,286046999.3,N
1501338075.6,286046997.7,N
1501338095.5,286046995.5,N
1501338115.3,286046994.9,N
1501338135.2,286046997.1,N
1501338155.9,286046999.4,N
1501338175.7,286046999.4,N
1501338195.6,286046998.1,N
1501338215.4,286046999.0,N
1501338235.2,286046999.3,N
1501338255.1,286046999.2,N
1501338256.0,286046999.2,N
1501338275.8,286046999.5,N
1501338295.7,286046998.0,N
1501338315.5,286046995.7,N
1501338335.3,286046993.7,N
1501338355.2,286046994.4,N
1501338375.0,286046994.7,N
1501338375.9,286046994.7,N
1501338395.8,286046993.8,N
1501338415.6,286046996.4,N
1501338435.4,286046994.5,N
1501338455.3,286046994.1,N
1501338475.1,286046993.7,N
1501338495.8,286046996.1,N
1501338515.7,286046994.0,N
1501338535.5,286046994.6,N
1501338555.4,286046994.8,N
1501338575.2,286046992.0,P
1501338595.0,286046994.9,N
1501338595.9,286046994.9,N
1501338615.8,286046995.9,N
1501338635.6,286046994.2,P
1501338655.5,286046998.1,P
1501338675.3,286046999.9,N
1501338695.1,286047002.0,N
1501338715.9,286047003.0,N
1501338735.7,286047005.9,N
1501338755.5,286047004.9,N
1501338775.4,286047007.4,N
1501338795.2,286047007.3,N
1501338815.1,286047006.6,N
1501338816.0,286047006.6,N
1501338835.8,286047007.8,N
1501338855.6,286047010.6,N
1501338875.5,286047010.5,N
1501338895.3,286047011.5,N
1501338915.1,286047012.1,N
1501338935.9,286047013.0,N
1501338955.7,286047015.4,N
1501338975.6,286047013.7,N
1501338995.4,286047015.0,N
1501339015.2,286047016.9,N
1501339035.1,286047018.6,N
1501339036.0,286047018.6,N
1501339055.8,286047017.3,N
1501339075.6,286047020.0,N
1501339095.5,286047019.8,N
1501339115.3,286047019.8,N
1501339135.2,286047018.5,N
1501339155.9,286047018.8,N
1501339175.7,286047015.8,N
1501339195.6,286047016.1,N
1501339215.4,286047018.8,N
1501339235.3,286047016.0,N
1501339255.1,286047015.3,N
1501339256.0,286047015.3,P
1501339275.8,286046998.3,N
1501339295.7,286046999.9,N
1501339315.5,286047000.3,N
1501339335.4,286046998.9,P
1501339355.2,286046993.7,N
1501339375.0,286046993.9,N
1501339375.9,286046993.9,N
1501339395.8,286046995.2,N
1501339415.6,286046998.0,N
1501339435.4,286046998.0,N
1501339455.3,286046997.6,N
1501339475.1,286046998.0,N
1501339495.9,286046995.4,N
1501339515.7,286046996.0,N
1501339535.5,286046994.2,N
1501339555.4,286046991.7,N
1501339575.2,286046994.0,N
1501339595.0,286046996.0,N
1501339595.9,286046996.0,N
1501339615.8,286046998.0,N
1501339635.6,286046994.9,N
1501339655.5,286046997.0,N
1501339675.3,286046997.5,N
1501339695.1,286046997.9,N
1501339715.9,286046997.6,N
1501339735.7,286046997.9,N
1501339755.5,286046994.9,N
1501339775.4,286046997.1,N
1501339795.2,286046997.6,N
1501339815.1,286046995.6,N
1501339816.0,286046995.6,N
1501339835.8,286046994.9,N
1501339855.6,286046996.1,N
1501339875.5,286046995.8,N
1501339895.3,286046996.0,N
1501339915.2,286046994.9,P
1501339935.9,286047000.4,N
1501339955.7,286047002.5,N
1501339975.6,286047002.5,N
1501339995.4,286047002.8,N
1501340015.2,286046999.8,N
1501340035.1,286047001.4,N
1501340036.0,286047001.4,N
1501340055.8,286047001.6,N
1501340075.7,286047004.1,N
1501340095.5,286047004.2,N
1501340115.3,286047004.4,N
1501340135.2,286047003.7,N
1501340155.0,286047005.3,N
1501340155.9,286047005.3,N
1501340175.7,286047005.2,N
1501340195.6,286047003.4,N
1501340215.4,286047003.7,N
1501340235.3,286047003.5,N
1501340255.1,286047003.5,N
1501340256.0,286047003.5,N
1501340275.8,286047004.0,N
1501340295.7,286047005.3,N
1501340315.5,286047002.9,N
1501340335.4,286047001.8,N
1501340355.2,286047003.4,N
1501340375.0,286047004.2,N
1501340375.9,286047004.2,N
1501340395.8,286047004.9,N
